Location: Brouckercque
(50.9548°N, 2.2938°E)
Time: 10:14:30
(UTC+00:00)

Daily predictions for brighter satellites

Satellite Brightness Start Highest point End
(mag) Time Altitude Azimuth Time Altitude Azimuth Time Altitude Azimuth
BREEZE-M DEB (TANK) 3.7 20:10:50 10° SW 20:14:03 55° SSE 20:23:39 10° ENE
CZ-4C R/B 4.5 20:12:02 10° WNW 20:16:57 28° N 20:22:49 10° NE
Cosmos 1315 Rocket 2.9 20:16:41 10° NNW 20:20:49 85° ENE 20:24:53 10° SSE
Exosat Rocket 4.4 20:17:19 10° SW 20:22:14 59° WNW 20:28:07 10° NNE
Cosmos 1814 Rocket 4.5 20:18:41 10° NNW 20:23:45 61° WSW 20:28:47 10° S
Meteor 1-11 Rocket 4.0 20:19:07 10° N 20:25:04 63° ENE 20:30:59 10° SSE
Sich 1 4.2 20:20:53 10° NNW 20:25:06 45° W 20:29:15 10° SSW
Cosmos 1697 Rocket 3.6 20:21:45 10° SSE 20:26:34 29° ESE 20:31:23 10° NE
Cosmos 2297 Rocket 2.3 20:21:48 10° NNW 20:27:29 80° WSW 20:33:07 10° SSE
Spot 2 Rocket 4.1 20:23:36 10° SE 20:28:20 42° ENE 20:33:05 10° N
Cosmos 1515 Rocket 4.3 20:27:53 10° SSE 20:31:48 34° E 20:35:47 10° NNE
BREEZE-M DEB (TANK) 2.3 20:31:29 10° WSW 20:34:16 38° SSE 20:36:20 10° E
USA 245 4.5 20:33:48 10° SSE 20:39:22 75° ENE 20:45:42 10° NNW
ARIANE 5 R/B 3.9 20:36:38 10° ESE 20:40:28 29° ENE 20:44:22 10° N
SPOT 1/Viking Rocket 3.9 20:37:41 10° S 20:42:50 66° WSW 20:48:00 10° NNW
ATLAS 2AS CENTAUR R/B 4.2 20:41:15 10° SSE 20:46:25 20° ESE 20:51:32 10° ENE
CARTOSAT-1 3.6 20:42:38 10° SSE 20:46:57 90° ENE 20:51:19 10° NNW
NOSS 3-4 (A) 3.6 20:44:47 10° S 20:50:08 43° ESE 20:55:56 10° NE
NOSS 3-4 (C) 3.7 20:44:51 10° S 20:50:14 43° ESE 20:56:01 10° NE
ATLAS CENTAUR R/B 4.4 20:50:02 10° NW 20:53:11 17° N 20:56:19 10° NE
IRAS Rocket 4.5 20:47:33 10° NNE 20:53:11 80° WNW 20:58:48 10° SSW
Aureole 1 Rocket 3.3 20:53:03 10° SSE 20:55:57 27° ESE 20:58:36 10° NE
Cosmos 2219 3.3 20:52:56 10° NNW 20:58:36 76° WSW 21:03:54 11° SSE
Cosmos 921 Rocket 3.6 20:55:17 10° NNW 20:59:41 49° ENE 21:03:26 14° SE
CZ-4B R/B 3.0 20:58:39 10° N 21:01:38 34° WNW 21:04:35 10° SW
Cosmos 482 Debris 3.9 20:59:38 10° WNW 21:02:21 79° N 21:06:34 10° E
USA 267 3.8 20:56:21 10° E 21:02:46 60° NNE 21:09:10 10° WNW
H-2A R/B 3.9 20:59:39 10° N 21:03:20 32° WNW 21:06:58 10° SW
Cosmos 1536 2.9 21:02:48 10° NNW 21:06:49 76° W 21:10:43 11° S
Cosmos 389 Rocket 2.4 21:03:39 10° NNW 21:07:08 85° ENE 21:10:02 14° SSE
SPOT 5 3.1 21:03:09 11° SSE 21:08:15 83° ENE 21:13:29 10° NNW
Cosmos 2082 3.8 21:03:20 10° NNW 21:09:01 75° ENE 21:13:46 15° SE
Cosmos 2034 Rocket 4.2 21:05:17 10° SSE 21:11:22 56° E 21:17:33 10° NNE
Cosmos 1184 Rocket 2.8 21:09:25 15° S 21:11:45 49° E 21:14:42 10° NNE
Helios 1A Rocket 3.1 21:08:57 11° S 21:12:44 69° WSW 21:16:45 10° NNW
Cosmos 1328 Rocket 4.4 21:10:58 10° SSW 21:15:10 52° WNW 21:19:25 10° N
Cosmos 2292 Rocket 4.1 21:12:21 10° N 21:15:19 27° ENE 21:16:59 17° ESE
Cosmos 405 4.2 21:12:30 10° NNW 21:15:39 36° W 21:18:48 10° SSW
Okean 1 3.8 21:14:48 16° SSE 21:17:41 41° E 21:21:29 10° NNE
Cosmos 968 Rocket 3.9 21:12:34 10° SW 21:17:42 66° WNW 21:22:49 10° NNE
Cosmos 1515 3.7 21:14:08 10° SSW 21:17:55 81° W 21:21:43 10° N
ERS-1 Rocket 3.0 21:13:55 13° SSE 21:18:23 89° ENE 21:23:28 10° NNW
ATLAS 3B R/B 3.7 21:13:45 10° NW 21:20:40 46° NNE 21:27:53 10° ESE
Geosat 4.1 21:17:27 16° SE 21:21:32 74° ENE 21:26:34 10° NNW
Cosmos 1743 3.2 21:18:32 10° NNW 21:22:16 57° W 21:25:38 12° S
Meteor 1-19 Rocket 4.4 21:18:00 13° SSE 21:22:38 50° E 21:27:51 10° NNE
ISS -3.7 21:21:10 10° W 21:24:32 79° N 21:27:53 10° E
Cosmos 2263 Rocket 2.6 21:19:22 10° NNW 21:24:54 55° NE 21:29:18 16° SE
BREEZE-M (TANK) 4.3 21:22:44 10° WSW 21:27:16 76° SSE 21:47:29 10° E
Cosmos 2344 3.6 21:22:25 10° SSW 21:29:39 55° ESE 21:37:08 10° NE
Cosmos 1933 Rocket 4.0 21:25:54 10° NNW 21:30:19 60° W 21:34:14 13° S
SL-4 R/B 2.6 21:27:03 10° WNW 21:31:24 47° SSW 21:34:00 21° SE
Cosmos 2227 Rocket 3.2 21:28:22 10° NW 21:33:37 39° WSW 21:38:31 12° S
Terra 1.8 21:29:55 17° SSE 21:33:41 85° WSW 21:38:29 10° NNW
Resurs 01 Rocket 4.1 21:31:25 10° SW 21:34:23 18° W 21:37:22 10° NW
Cosmos 1975 3.4 21:30:56 10° N 21:34:51 44° ENE 21:37:13 21° SE
SWAS 4.4 21:30:52 10° NNW 21:35:12 85° ENE 21:38:01 21° SSE
Cosmos 1733 Rocket 4.1 21:37:04 10° N 21:41:11 35° ENE 21:43:44 19° SE
Meteor 2-4 Rocket 4.3 21:37:43 18° SSE 21:41:32 41° E 21:46:50 10° NNE
Cosmos 1340 3.2 21:38:28 10° SSW 21:42:09 56° WNW 21:45:51 10° N
Meteor 2-21 4.5 21:37:42 10° NNW 21:43:49 82° W 21:48:44 17° S
Cosmos 2369 3.7 21:40:54 10° SSW 21:46:29 67° ESE 21:52:08 10° NE
Cosmos 783 Rocket 4.5 21:42:56 10° NNW 21:48:11 87° WSW 21:51:38 22° SSE
Cosmos 1980 Rocket 2.2 21:43:25 10° SSW 21:48:56 61° ESE 21:54:33 10° NE
CZ-2C R/B 4.0 21:46:54 10° NNE 21:51:39 76° WNW 21:56:25 10° SSW
Cosmos 2322 Rocket 3.9 21:53:11 14° ESE 21:54:40 16° E 21:57:50 10° ENE
Meteor 2-21 Rocket 4.4 21:49:27 10° N 21:55:34 87° W 22:00:00 20° S
Cosmos 1354 Rocket 4.0 21:51:12 13° SSW 21:55:52 70° ESE 22:01:11 10° NNE
Cosmos 2360 4.4 21:51:02 10° SW 21:56:43 74° WNW 22:02:26 10° NNE
SJ 16-02 1.4 21:56:08 21° S 21:58:56 61° ESE 22:03:16 10° NNE
Cosmos 2228 Rocket 3.1 21:55:45 19° S 21:59:02 84° E 22:03:37 10° NNE
Meteor 1-18 Rocket 4.3 21:56:11 19° S 22:00:25 69° E 22:06:03 10° NNE
Cosmos 1777 Rocket 4.2 22:01:35 21° S 22:04:54 54° ESE 22:10:01 10° NNE
SAR-Lupe-4 3.5 22:01:40 10° NNE 22:05:17 78° ESE 22:07:08 27° S
Cosmos 1844 Rocket 4.0 22:01:30 10° NNW 22:06:29 32° NE 22:11:24 10° ESE
USA 81 4.1 22:03:55 23° S 22:07:14 68° E 22:12:30 10° N
CZ-4C R/B 4.3 22:01:40 10° NW 22:07:22 33° NNE 22:14:08 10° E
USA 215 3.5 22:02:09 10° ENE 22:08:26 47° SE 22:14:42 10° SSW
Cosmos 2227 4.3 22:02:55 10° NNW 22:08:42 75° ENE 22:12:24 23° SE
Iridium 2 4.3 22:05:49 10° N 22:09:25 43° E 22:10:50 29° SE
Cosmos 1697 Rocket 3.3 22:04:38 10° SW 22:10:13 58° NW 22:15:50 10° NNE
Cosmos 2297 Rocket 4.4 22:07:35 10° WNW 22:10:37 15° W 22:13:38 10° SW
Cosmos 1092 Rocket 4.1 22:04:51 10° NNW 22:11:03 73° W 22:15:25 20° S
Cosmos 773 Rocket 4.4 22:08:44 10° NNW 22:13:53 57° WSW 22:16:57 23° S
Meteor 1-4 Rocket 3.6 22:12:04 10° N 22:15:13 32° ENE 22:16:23 25° ESE
CSL-04 DEB 4.5 22:12:39 10° NNE 22:16:35 73° WNW 22:19:15 20° SSW
ARIANE 5 R/B 3.6 22:13:52 18° SSW 22:16:47 40° W 22:21:04 10° NNW
Cosmos 1726 4.1 22:15:26 10° NNE 22:18:05 19° ENE 22:19:37 15° E
Cosmos 1634 Rocket 3.9 22:14:35 20° S 22:19:07 83° E 22:25:21 10° N
Iridium 4 Rocket 4.1 22:24:37 10° NNE 22:28:38 35° E 22:30:36 24° SE
SL-16 R/B 2.9 22:27:38 27° SSE 22:29:55 37° ESE 22:35:06 10° NE
Cosmos 1733 3.6 22:28:22 10° N 22:32:07 52° ENE 22:33:22 35° SE
Cosmos 44 Rocket 3.1 22:28:40 10° NW 22:33:25 80° SW 22:35:37 31° SSE
ATLAS CENTAUR R/B 3.6 22:29:12 10° NNW 22:33:29 29° NNE 22:37:40 10° E
Cosmos 1378 3.8 22:34:16 23° SW 22:36:16 50° WNW 22:39:52 10° N
ATLAS 2AS CENTAUR R/B 2.9 22:28:34 10° SSW 22:36:19 71° SE 22:43:48 10° NE
Cosmos 1346 Rocket 2.7 22:35:44 33° SSW 22:37:29 89° W 22:41:32 10° NNE
Cosmos 1538 Rocket 4.0 22:32:22 10° NNW 22:37:40 81° WSW 22:40:18 30° SSE
RESURS DK-1 2.2 22:36:47 28° SSW 22:38:53 79° ESE 22:43:01 10° NNE
NOSS 3-4 (A) 4.2 22:35:14 10° WSW 22:40:55 52° NW 22:47:13 10° NE
NOSS 3-4 (C) 4.2 22:35:18 10° WSW 22:41:00 53° NW 22:47:19 10° NE
ADEOS Rocket 3.6 22:40:52 19° SE 22:44:26 43° ENE 22:49:58 10° N
USA 267 3.2 22:40:37 18° SE 22:45:41 78° SSW 22:52:17 10° WNW
Cosmos 2278 3.7 22:42:30 15° SSW 22:47:14 83° WNW 22:52:58 10° NNE
Cosmos 1707 Rocket 4.0 22:46:00 23° SSW 22:48:35 58° WNW 22:52:59 10° N
SL-24 R/B - RUBIN 2 3.7 22:49:23 10° NW 22:53:41 59° SW 22:55:13 37° S
Okean 1-7 3.7 22:54:08 33° SE 22:55:29 43° E 22:59:40 10° NNE
Cosmos 923 Rocket 4.2 22:50:58 10° NNW 22:56:19 71° ENE 22:59:06 29° SE
ISS -3.4 22:57:58 10° W 23:00:55 46° SW 23:00:55 46° SW
Cosmos 1703 Rocket 4.1 23:00:19 34° SE 23:01:45 46° E 23:06:01 10° NNE
Cosmos 2360 Rocket 3.1 23:00:23 26° SE 23:02:08 32° ESE 23:07:05 10° NE
Cosmos 1818 4.2 22:59:20 10° NW 23:04:44 54° NE 23:09:12 15° ESE
Cosmos 1842 4.5 23:06:04 26° ESE 23:06:51 28° E 23:10:14 10° NNE
Cosmos 2263 Rocket 3.3 23:03:45 10° NW 23:08:33 30° WSW 23:10:59 22° SW
SL-4 R/B 4.3 23:08:04 10° WSW 23:09:26 13° WSW 23:09:26 13° WSW
Cosmos 2242 Rocket 4.2 23:09:15 33° SE 23:10:44 45° E 23:15:06 10° NNE
Cosmos 1441 Rocket 3.2 23:09:48 41° SSW 23:10:57 72° WNW 23:14:41 10° N
ATLAS 3B R/B 2.9 23:04:35 10° NW 23:11:52 70° SW 23:16:23 26° SSE
Terra 4.2 23:10:09 10° WSW 23:12:11 13° W 23:14:14 10° WNW
Cosmos 2278 Rocket 4.5 23:08:21 10° NNW 23:12:38 21° NE 23:16:55 10° E
NOSS 3-1 (C) 4.5 23:05:44 10° NW 23:12:40 60° NE 23:21:00 10° ESE
Spot 4 4.1 23:11:37 33° SSW 23:13:36 58° W 23:18:21 10° NNW
Cosmos 1782 Rocket 3.8 23:09:43 10° N 23:14:02 58° ENE 23:15:37 35° SE
Cosmos 1937 Rocket 4.4 23:13:31 27° SE 23:15:08 33° ESE 23:19:49 10° NE
NOSS 2-1 (E) 2.9 23:15:19 55° ESE 23:15:19 55° ESE 23:18:28 10° NE
Cosmos 1066 Rocket 4.3 23:12:30 28° SSW 23:15:41 85° WNW 23:21:26 10° NNE
ALOS 2 2.5 23:15:18 40° S 23:16:52 80° WSW 23:21:17 10° NNW
Cosmos 2112 Rocket 4.2 23:11:43 10° NNW 23:17:05 69° ENE 23:19:52 29° SE
Cosmos 2266 Rocket 4.0 23:11:02 10° N 23:17:23 84° W 23:20:37 31° S
Iridium 51 4.2 23:16:57 47° SW 23:17:42 62° W 23:21:11 10° N
Cosmos 1733 Rocket 4.5 23:15:02 10° NNW 23:18:53 29° W 23:20:49 21° SW
Cosmos 1680 Rocket 3.5 23:14:29 10° NNW 23:19:51 82° ENE 23:22:24 32° SSE
Cosmos 1908 Rocket 3.7 23:21:23 10° NNW 23:25:41 62° W 23:27:06 39° SSW
Okean 3 3.5 23:26:58 44° SSE 23:28:10 68° E 23:32:24 10° NNE
Cosmos 2333 Rocket 3.3 23:26:56 25° SE 23:28:44 30° ESE 23:33:34 10° NE
Cosmos 1805 4.2 23:26:03 10° NNW 23:29:39 36° W 23:30:41 30° SW
ERS-2 2.0 23:28:16 10° NNE 23:31:55 85° WNW 23:32:44 52° SSW
Cosmos 1980 Rocket 3.8 23:28:19 10° WSW 23:33:20 32° NW 23:38:24 10° NNE
Meteor 2-10 4.4 23:29:56 10° NNW 23:35:10 54° W 23:37:21 32° SSW
MINOTAUR IV R/B 4.5 23:33:53 40° SSW 23:35:27 80° ESE 23:39:59 10° NNE
H-2A R/B 3.7 23:32:25 10° N 23:36:27 61° WNW 23:38:02 34° SW
Cosmos 1766 3.5 23:33:34 10° NNW 23:37:25 56° W 23:38:21 43° SW
Cosmos 1898 Rocket 3.6 23:35:22 35° S 23:37:33 66° ESE 23:42:50 10° NNE
Cosmos 2322 Rocket 2.1 23:34:57 30° SSW 23:37:50 83° ESE 23:43:29 10° NNE
SJ 16-02 3.6 23:34:34 10° W 23:37:54 21° NW 23:41:14 10° N
Cosmos 1300 Rocket 3.9 23:34:16 10° N 23:38:33 56° ENE 23:40:11 34° SE
Sich 1 Rocket 4.5 23:35:54 10° N 23:40:05 41° ENE 23:42:02 26° SE
Cosmos 990 Rocket 4.0 23:37:50 31° SSW 23:40:25 86° WNW 23:45:43 10° NNE
Meteor 1-15 Rocket 4.4 23:37:55 10° NNW 23:43:29 63° W 23:46:02 32° SSW
Cosmos 1356 4.4 23:42:57 31° WSW 23:43:46 36° WNW 23:46:52 10° N
Cosmos 2344 4.5 23:37:05 10° WSW 23:44:13 49° NNW 23:52:17 10° NE
Cosmos 1461 4.2 23:44:42 10° NNW 23:48:33 37° NE 23:52:30 10° ESE
Meteor 1-4 Rocket 4.3 23:47:19 10° NW 23:49:51 19° W 23:50:22 19° WSW
Cosmos 1844 Rocket 2.8 23:45:15 10° NW 23:50:46 60° WSW 23:53:02 34° S
USA 215 3.4 23:45:11 10° ENE 23:51:45 78° NNW 23:58:18 10° WSW
NOSS 2-1 (C) 3.3 23:50:44 34° WSW 23:51:51 57° NW 23:55:10 10° NE
Cosmos 1726 2.8 23:49:49 10° NNW 23:53:17 40° W 23:53:54 36° WSW
NOSS 2-1 (D) 3.4 23:52:23 33° WSW 23:53:31 54° NW 23:56:50 10° NE
